Location: Hains Lake
(37.8540°N, 99.8578°W)
Time: 22:55:23
(UTC+00:00)

Vanguard 2 Rocket - Pass Details

Date: 21 April 2021
Orbit: 553 x 3326 km, 32.9° (Epoch: 06 May)

Event Time Altitude Azimuth Distance (km) Brightness Sun altitude
Rises 19:46:08 0° 242° (WSW) 6,161 11.5 60.1°
Reaches altitude 10° 19:49:45 10° 239° (WSW) 5,434 11.5 59.7°
Maximum altitude 20:07:25 67° 162° (SSE) 3,477 11.1 57.5°
Drops below altitude 10° 20:26:59 10° 86° (E) 5,936 10.9 54.6°
Sets 20:31:08 0° 84° (E) 6,731 11.0 54.0°
